When you browse on this site, cookies collect data to enhance your experience and personalize the content and advertising you see.
Visit our Privacy Policy to learn more. By continuing to use the site, you agree to this use of cookies and data.
  • In Romania
  • List of Countries
  • For 7 days
  • Water Temperature
  • Weather Map
  • Weather Widgets
  • user-avatar
    Login

    Hourly Weather Siedlce

    Today, 21 August, Wednesday

    Time Temperature Precipitation Wind Pressure Humidity
    00:00 +21°C° 0.1 mm 3 mps 751 mmHg 73%
    01:00 +20°C° 0.1 mm 4 mps 751 mmHg 76%
    02:00 +20°C° 0.3 mm 4 mps 751 mmHg 80%
    03:00 +20°C° 0.3 mm 4 mps 750 mmHg 85%
    04:00 +20°C° 0.3 mm 4 mps 750 mmHg 90%
    05:00 +21°C° 0.6 mm 4 mps 750 mmHg 89%
    06:00 +21°C° 0.6 mm 3 mps 750 mmHg 89%
    07:00 +22°C° 0.6 mm 3 mps 750 mmHg 88%
    08:00 +22°C° 0.1 mm 4 mps 751 mmHg 87%
    09:00 +22°C° 0.1 mm 5 mps 751 mmHg 86%
    10:00 +21°C° 0.1 mm 5 mps 751 mmHg 84%
    11:00 +20°C° 0 mm 6 mps 752 mmHg 83%
    12:00 +19°C° 0 mm 6 mps 753 mmHg 81%
    13:00 +17°C° 0 mm 7 mps 753 mmHg 80%
    14:00 +17°C° 0 mm 7 mps 754 mmHg 77%
    15:00 +17°C° 0 mm 7 mps 754 mmHg 75%
    16:00 +17°C° 0 mm 6 mps 754 mmHg 72%
    17:00 +16°C° 0 mm 6 mps 755 mmHg 74%
    18:00 +15°C° 0 mm 5 mps 755 mmHg 76%
    19:00 +15°C° 0 mm 4 mps 756 mmHg 77%
    20:00 +14°C° 0 mm 3 mps 756 mmHg 81%
    21:00 +13°C° 0 mm 3 mps 756 mmHg 85%
    22:00 +13°C° 0 mm 2 mps 756 mmHg 89%
    23:00 +13°C° 0 mm 2 mps 757 mmHg 89%

    Tomorrow, 22 August, Thursday

    Time Temperature Precipitation Wind Pressure Humidity
    00:00 +13°C° 0 mm 2 mps 757 mmHg 90%
    01:00 +12°C° 0 mm 2 mps 757 mmHg 91%
    02:00 +12°C° 0 mm 2 mps 757 mmHg 90%
    03:00 +12°C° 0 mm 2 mps 757 mmHg 89%
    04:00 +10°C° 0 mm 2 mps 757 mmHg 88%
    05:00 +13°C° 0 mm 2 mps 757 mmHg 83%
    06:00 +14°C° 0 mm 2 mps 758 mmHg 77%
    07:00 +15°C° 0 mm 1 mps 758 mmHg 72%
    08:00 +18°C° 0 mm 1 mps 758 mmHg 69%
    09:00 +19°C° 0 mm 1 mps 758 mmHg 65%
    10:00 +21°C° 0 mm 1 mps 758 mmHg 62%
    11:00 +20°C° 0 mm 2 mps 758 mmHg 58%
    12:00 +21°C° 0 mm 2 mps 758 mmHg 55%
    13:00 +23°C° 0 mm 2 mps 757 mmHg 51%
    14:00 +23°C° 0 mm 2 mps 757 mmHg 51%
    15:00 +23°C° 0 mm 2 mps 757 mmHg 52%
    16:00 +23°C° 0 mm 2 mps 757 mmHg 52%
    17:00 +20°C° 0 mm 2 mps 757 mmHg 57%
    18:00 +19°C° 0 mm 2 mps 757 mmHg 62%
    19:00 +18°C° 0 mm 2 mps 757 mmHg 66%
    20:00 +17°C° 0 mm 2 mps 757 mmHg 68%
    21:00 +16°C° 0 mm 2 mps 757 mmHg 69%
    22:00 +15°C° 0 mm 2 mps 757 mmHg 71%
    23:00 +15°C° 0 mm 2 mps 757 mmHg 73%

    Day after tomorrow, 23 August, Friday

    Time Temperature Precipitation Wind Pressure Humidity
    00:00 +15°C° 0 mm 2 mps 757 mmHg 75%
    01:00 +14°C° 0 mm 2 mps 757 mmHg 77%
    02:00 +14°C° 0 mm 2 mps 757 mmHg 78%
    03:00 +13°C° 0 mm 2 mps 757 mmHg 80%
    04:00 +13°C° 0 mm 2 mps 757 mmHg 82%
    05:00 +15°C° 0 mm 2 mps 757 mmHg 78%
    06:00 +16°C° 0 mm 2 mps 757 mmHg 74%
    07:00 +17°C° 0 mm 2 mps 758 mmHg 70%
    08:00 +19°C° 0 mm 2 mps 758 mmHg 64%
    09:00 +20°C° 0 mm 2 mps 758 mmHg 58%
    10:00 +22°C° 0 mm 3 mps 758 mmHg 51%
    11:00 +24°C° 0 mm 2 mps 757 mmHg 48%
    12:00 +24°C° 0 mm 2 mps 757 mmHg 44%
    13:00 +25°C° 0 mm 2 mps 757 mmHg 41%
    14:00 +25°C° 0 mm 2 mps 757 mmHg 41%
    15:00 +25°C° 0 mm 2 mps 757 mmHg 42%
    16:00 +25°C° 0 mm 2 mps 756 mmHg 43%
    17:00 +23°C° 0 mm 2 mps 756 mmHg 48%
    18:00 +20°C° 0 mm 2 mps 756 mmHg 54%
    19:00 +18°C° 0 mm 2 mps 756 mmHg 60%
    20:00 +17°C° 0 mm 2 mps 756 mmHg 63%
    21:00 +17°C° 0 mm 2 mps 756 mmHg 65%
    22:00 +16°C° 0 mm 2 mps 757 mmHg 68%
    23:00 +15°C° 0 mm 2 mps 756 mmHg 70%

    24 August, Saturday

    Time Temperature Precipitation Wind Pressure Humidity
    00:00 +15°C° 0 mm 2 mps 756 mmHg 71%
    01:00 +14°C° 0 mm 2 mps 756 mmHg 73%
    02:00 +14°C° 0 mm 2 mps 756 mmHg 75%
    03:00 +14°C° 0 mm 2 mps 756 mmHg 77%
    04:00 +13°C° 0 mm 2 mps 756 mmHg 79%
    05:00 +14°C° 0 mm 3 mps 756 mmHg 76%
    06:00 +16°C° 0 mm 3 mps 756 mmHg 74%
    07:00 +17°C° 0 mm 3 mps 756 mmHg 71%
    08:00 +19°C° 0 mm 3 mps 756 mmHg 65%
    09:00 +21°C° 0 mm 4 mps 756 mmHg 59%
    10:00 +23°C° 0 mm 4 mps 756 mmHg 53%
    11:00 +25°C° 0 mm 4 mps 755 mmHg 50%
    12:00 +26°C° 0 mm 4 mps 755 mmHg 46%
    13:00 +26°C° 0 mm 4 mps 755 mmHg 43%
    14:00 +26°C° 0 mm 3 mps 754 mmHg 44%
    15:00 +26°C° 0 mm 3 mps 754 mmHg 45%
    16:00 +26°C° 0 mm 3 mps 754 mmHg 46%
    17:00 +24°C° 0 mm 3 mps 754 mmHg 52%
    18:00 +21°C° 0 mm 3 mps 754 mmHg 58%
    19:00 +19°C° 0 mm 2 mps 754 mmHg 64%
    20:00 +19°C° 0 mm 3 mps 754 mmHg 66%
    21:00 +18°C° 0 mm 3 mps 754 mmHg 68%
    22:00 +17°C° 0 mm 3 mps 754 mmHg 71%
    23:00 +17°C° 0 mm 3 mps 754 mmHg 73%

    25 August, Sunday

    Time Temperature Precipitation Wind Pressure Humidity
    00:00 +16°C° 0 mm 3 mps 754 mmHg 76%
    01:00 +16°C° 0 mm 3 mps 753 mmHg 79%
    02:00 +14°C° 0 mm 3 mps 753 mmHg 79%
    03:00 +14°C° 0 mm 3 mps 753 mmHg 80%
    04:00 +14°C° 0 mm 3 mps 753 mmHg 81%
    05:00 +16°C° 0 mm 3 mps 753 mmHg 77%
    06:00 +17°C° 0 mm 3 mps 753 mmHg 73%
    07:00 +18°C° 0 mm 4 mps 753 mmHg 70%
    08:00 +20°C° 0 mm 4 mps 754 mmHg 64%
    09:00 +22°C° 0 mm 4 mps 754 mmHg 59%
    10:00 +23°C° 0 mm 4 mps 754 mmHg 53%
    11:00 +25°C° 0 mm 4 mps 754 mmHg 51%
    12:00 +26°C° 0 mm 4 mps 753 mmHg 48%
    13:00 +27°C° 0 mm 4 mps 753 mmHg 45%
    14:00 +27°C° 0 mm 4 mps 753 mmHg 46%
    15:00 +27°C° 0 mm 4 mps 753 mmHg 47%
    16:00 +27°C° 0 mm 4 mps 753 mmHg 48%
    17:00 +25°C° 0 mm 4 mps 753 mmHg 55%
    18:00 +22°C° 0 mm 4 mps 753 mmHg 61%
    19:00 +20°C° 0 mm 4 mps 753 mmHg 67%
    20:00 +19°C° 0 mm 4 mps 753 mmHg 69%
    21:00 +19°C° 0 mm 4 mps 753 mmHg 71%
    22:00 +18°C° 0 mm 4 mps 753 mmHg 73%
    23:00 +18°C° 0 mm 4 mps 753 mmHg 73%

    26 August, Monday

    Time Temperature Precipitation Wind Pressure Humidity
    00:00 +17°C° 0 mm 4 mps 753 mmHg 73%
    01:00 +17°C° 0 mm 4 mps 753 mmHg 74%
    02:00 +17°C° 0 mm 4 mps 753 mmHg 75%
    03:00 +17°C° 0 mm 4 mps 753 mmHg 77%
    04:00 +17°C° 0 mm 4 mps 753 mmHg 79%
    05:00 +18°C° 0 mm 4 mps 753 mmHg 76%
    06:00 +19°C° 0 mm 4 mps 753 mmHg 74%
    07:00 +20°C° 0 mm 5 mps 753 mmHg 71%
    08:00 +21°C° 0 mm 5 mps 753 mmHg 66%
    09:00 +23°C° 0 mm 5 mps 753 mmHg 61%
    10:00 +26°C° 0 mm 5 mps 753 mmHg 56%
    11:00 +27°C° 0 mm 5 mps 753 mmHg 53%
    12:00 +28°C° 0 mm 5 mps 753 mmHg 51%
    13:00 +29°C° 0 mm 5 mps 753 mmHg 48%
    14:00 +29°C° 0 mm 5 mps 752 mmHg 49%
    15:00 +28°C° 0 mm 5 mps 752 mmHg 50%
    16:00 +28°C° 0 mm 5 mps 752 mmHg 52%
    17:00 +27°C° 0 mm 4 mps 752 mmHg 57%
    18:00 +25°C° 0 mm 4 mps 752 mmHg 63%
    19:00 +22°C° 0 mm 3 mps 752 mmHg 68%
    20:00 +22°C° 0 mm 3 mps 752 mmHg 71%
    21:00 +21°C° 0 mm 4 mps 752 mmHg 73%
    22:00 +20°C° 0 mm 4 mps 752 mmHg 76%
    23:00 +20°C° 0 mm 3 mps 752 mmHg 78%
    Show more